User: anonymous   Login
Location: Nag� el Ma?a??a
(24.0667°N, 32.8833°E)
Time: 10:29:47
(UTC+00:00)
Language:

GPS 2-15 Rocket1 - Orbit

View from above orbital plane
View from above orbital plane
View from above satellite
View from above satellite

Ground track
Ground track

The orbit data is extracted from the following two-line orbital elements,

1 22109U 92058B   21340.91667181  .00000623  00000-0  37018-4 0  9991
2 22109  19.7818 240.4660 0036644 139.6383 220.6757 14.73757877550788
Epoch (UTC): 06 December 2021 22:00:00
Eccentricity: 0.0036644
inclination: 19.7818°
perigee height: 623 km
apogee height: 675 km
right ascension of ascending node: 240.4660°
argument of perigee: 139.6383°
revolutions per day: 14.73757877
mean anomaly at epoch: 220.6757°
orbit number at epoch: 55078

The dashed part of the orbit path shows where the satellite is in the earth's shadow,  

DLR